Milton, FL

7:35 AM CST on December 08, 2016 (GMT -0600)
Whiting Field Naval Air Station (South)

Weather History for KNDZ - December, 2012

Change the Weather History Date:

Sunday, December 9, 2012

  Actual Average (KNSE) Record (KNSE)
Temperature  
Mean Temperature 63 °F -  
Max Temperature 75 °F 61 °F 80 °F (2007)
Min Temperature 51 °F 44 °F 27 °F (2010)
Degree Days  
Heating Degree Days 2    
Growing Degree Days 13 (Base 50)    
Moisture  
Dew Point 59 °F    
Average Humidity 90    
Maximum Humidity 100    
Minimum Humidity 64    
Precipitation  
Precipitation 0.00 in - - ()
Sea Level Pressure  
Sea Level Pressure 30.00 in    
Wind  
Wind Speed 3 mph (SE)    
Max Wind Speed 14 mph    
Max Gust Speed -    
Visibility 6 miles    
Events Fog    
Averages and records for this station are not official NWS values.
T = Trace of Precipitation, MM = Missing Value Source: NWS Daily Summary

Daily Weather History Graph

Daily Weather History Graph

Search for Another Location

Airport or City:

Trip Planner

Search our weather history database for the weather conditions in past years. The results will help you decide how hot, cold, wet, or windy it might be!

Date:

Astronomy

Dec. 09, 2012 Rise Set
Actual Time 6:34 AM CST 4:47 PM CST
Civil Twilight 6:07 AM CST 5:13 PM CST
Nautical Twilight 5:37 AM CST 5:43 PM CST
Astronomical Twilight 5:08 AM CST 6:12 PM CST
Moon 2:19 AM CST (12/9) 1:43 PM CST (12/9)
Length of Visible Light 11h 05m
Length of Day
10h 12m
Waning Crescent, 18% of the Moon is Illuminated
Dec 9
Waning Crescent
Dec 13
New
Dec 19
First Quarter
Dec 28
Full
Jan 4
Last Quarter

Hourly Weather History & Observations

Time (CST) Temp. Dew Point Humidity Pressure Visibility Wind Dir Wind Speed Gust Speed Precip Events Conditions
12:56 AM 54.0 °F 53.1 °F 97% 29.98 in 0.5 mi Calm Calm - N/A Fog Fog
1:06 AM 55.4 °F 53.6 °F 94% 30.02 in 1.2 mi Calm Calm - N/A   Mostly Cloudy
1:26 AM 55.4 °F 55.4 °F 100% 30.01 in 3.0 mi Calm Calm - N/A   Mostly Cloudy
1:56 AM 55.9 °F 54.0 °F 93% 29.97 in 4.0 mi ENE 3.5 mph - N/A   Mostly Cloudy
2:04 AM 55.4 °F 53.6 °F 94% 30.01 in 10.0 mi Calm Calm - N/A   Partly Cloudy
2:32 AM 55.4 °F 53.6 °F 94% 30.01 in 2.5 mi Calm Calm - N/A   Mostly Cloudy
2:46 AM 55.4 °F 53.6 °F 94% 30.00 in 0.8 mi Calm Calm - N/A   Mist
2:56 AM 55.9 °F 54.0 °F 93% 29.97 in 0.5 mi Calm Calm - N/A Fog Fog
3:47 AM 51.8 °F 51.8 °F 100% 30.01 in 1.0 mi ENE 3.5 mph - N/A   Mist
3:56 AM 54.0 °F 53.1 °F 97% 29.98 in 1.0 mi ENE 3.5 mph - N/A   Mist
4:11 AM 53.6 °F 53.6 °F 100% 30.02 in 0.8 mi East 4.6 mph - N/A   Mist
4:53 AM 57.2 °F 55.4 °F 94% 30.03 in 1.2 mi East 3.5 mph - N/A   Overcast
4:56 AM 57.0 °F 55.0 °F 93% 29.99 in 1.2 mi East 3.5 mph - N/A   Overcast
5:19 AM 55.4 °F 53.6 °F 94% 30.03 in 0.8 mi East 3.5 mph - N/A   Overcast
5:28 AM 55.4 °F 55.4 °F 100% 30.04 in 1.0 mi East 3.5 mph - N/A   Overcast
5:44 AM 57.2 °F 55.4 °F 94% 30.04 in 0.5 mi Calm Calm - N/A Fog Fog
5:56 AM 57.0 °F 55.9 °F 96% 30.00 in 0.5 mi Calm Calm - N/A Fog Fog
6:56 AM 57.9 °F 57.0 °F 97% 30.02 in 0.2 mi ENE 3.5 mph - N/A Fog Fog
7:56 AM 60.1 °F 57.9 °F 93% 30.03 in 0.2 mi East 3.5 mph - N/A Fog Fog
8:56 AM 62.1 °F 61.0 °F 96% 30.05 in 0.2 mi ESE 4.6 mph - N/A Fog Fog
9:34 AM 62.6 °F 62.6 °F 100% 30.09 in 1.8 mi ESE 4.6 mph - N/A   Overcast
9:38 AM 64.4 °F 62.6 °F 94% 30.09 in 3.0 mi East 4.6 mph - N/A   Overcast
9:56 AM 64.9 °F 63.0 °F 93% 30.05 in 10.0 mi East 4.6 mph - N/A   Overcast
10:27 AM 69.8 °F 62.6 °F 78% 30.08 in 10.0 mi Calm Calm - N/A   Mostly Cloudy
10:56 AM 72.0 °F 64.0 °F 76% 30.03 in 10.0 mi SE 4.6 mph - N/A   Partly Cloudy
11:56 AM 75.0 °F 62.1 °F 64% 30.00 in 10.0 mi South 11.5 mph - N/A   Mostly Cloudy
12:56 PM 73.9 °F 63.0 °F 68% 29.98 in 10.0 mi South 11.5 mph - N/A   Mostly Cloudy
1:56 PM 73.0 °F 63.0 °F 71% 29.97 in 10.0 mi South 13.8 mph - N/A   Overcast
2:56 PM 73.0 °F 63.0 °F 71% 29.96 in 10.0 mi South 11.5 mph - N/A   Scattered Clouds
3:56 PM 72.0 °F 63.0 °F 73% 29.96 in 10.0 mi South 9.2 mph - N/A   Clear
4:56 PM 69.1 °F 63.0 °F 81% 29.96 in 10.0 mi SSE 5.8 mph - N/A   Scattered Clouds
5:56 PM 66.0 °F 62.1 °F 87% 29.96 in 10.0 mi SE 4.6 mph - N/A   Clear
6:56 PM 66.9 °F 64.0 °F 90% 29.96 in 10.0 mi SE 4.6 mph - N/A   Mostly Cloudy
7:37 PM 68.0 °F 64.4 °F 88% 30.00 in 10.0 mi South 4.6 mph - N/A   Overcast
7:56 PM 66.9 °F 64.0 °F 90% 29.96 in 10.0 mi SSE 4.6 mph - N/A   Overcast
8:04 PM 66.2 °F 64.4 °F 94% 30.00 in 10.0 mi SSE 4.6 mph - N/A   Mostly Cloudy
8:17 PM 66.2 °F 64.4 °F 94% 30.00 in 10.0 mi SSE 5.8 mph - N/A   Mostly Cloudy
8:24 PM 66.2 °F 64.4 °F 94% 30.00 in 10.0 mi SSE 5.8 mph - N/A   Mostly Cloudy
8:56 PM 66.9 °F 64.9 °F 93% 29.95 in 10.0 mi SSE 5.8 mph - N/A   Mostly Cloudy
9:39 PM 66.2 °F 64.4 °F 94% 29.98 in 10.0 mi South 6.9 mph - N/A   Scattered Clouds
9:56 PM 66.9 °F 64.9 °F 93% 29.94 in 10.0 mi South 5.8 mph - N/A   Clear
10:56 PM 66.9 °F 64.0 °F 90% 29.93 in 10.0 mi South 6.9 mph - N/A   Clear
11:56 PM 66.9 °F 64.0 °F 90% 29.91 in 10.0 mi South 6.9 mph - N/A   Clear